Content
SEND FEEDBACK

Daily
Averages
Monthly
Summary
United States of America

MOUNT SHASTA, CALIFORNIA


Home > North America > United States > California
Elevation: 3679 feet     Latitude: 41 19N     Longitude: 122 19W

WEATHER
 
SELECT A DAY
Number of Records: 233,509;   Date Range: 1/1/95 - 9/29/14
 
SHARE

PRINT THIS DATA

[ ← Previous Day ]
WEATHER ALMANAC - MARCH 29, 2014
[ Next Day → ]
[ °C ]   °F
Weather ElementAverageHighLow
Temperature43.8 °F48.9 °F (12:56 pm)37 °F (9:56 pm)
Dewpoint37.7 °F41 °F (1:35 am)32 °F (11:56 pm)
Humidity80 %89 % (1:35 am)61 % (1:56 pm)
Barometer29.96 in30.00 in (9:56 am)29.91 in (3:44 am)
Wind Speed2.1 mph6.9 mph (11:56 pm)
Weather ElementAverage
Visibility9.3 mi
Wind DirectionNNE (34.3 °)

Weather ElementTotal
Precipitation0.26 in
Heating Degree Days22.1 (Base 65)
Averaged from 28 records on March 29, 2014
WEATHER CONDITIONS BREAKOUT
WIND DIRECTION BREAKOUT
WEATHER BY HOUR - MARCH 29, 2014
[ °C ]   °F
Local TimeTemperatureDewpointHumidityBarometerVisibilityWind DirectionWind SpeedGust SpeedPrecipitationEventsConditions
1:35 AM44.1 °F41.0 °F89 %29.92 in6.0 miSE (130°)3.5 mph0.03 inRainLight Rain
1:56 AM45.0 °F41.0 °F86 %29.97 in9.0 miCalm0.04 inRainLight Rain
2:56 AM44.1 °F41.0 °F89 %29.97 in9.0 miCalm0.05 inRainLight Rain
3:44 AM44.1 °F41.0 °F89 %29.91 in10.0 miCalm0.01 inOvercast
3:56 AM44.1 °F41.0 °F89 %29.96 in10.0 miCalm0.01 inOvercast
4:44 AM44.1 °F41.0 °F89 %29.91 in5.0 miCalm0.00 inRainRain
4:56 AM44.1 °F41.0 °F89 %29.96 in10.0 miCalm0.01 inRainLight Rain
5:56 AM43.0 °F39.9 °F89 %29.96 in10.0 miCalm0.03 inMostly Cloudy
6:31 AM43.0 °F39.9 °F89 %29.91 in10.0 miCalmPartly Cloudy
6:56 AM43.0 °F39.0 °F86 %29.96 in10.0 miEast (100°)3.5 mphPartly Cloudy
7:56 AM43.0 °F39.0 °F86 %29.98 in10.0 miESE (110°)3.5 mphMostly Cloudy
8:56 AM44.1 °F39.9 °F85 %29.99 in10.0 miESE (120°)3.5 mphScattered Clouds
9:56 AM45.0 °F39.0 °F80 %30.00 in10.0 miVariable3.5 mphClear
10:56 AM46.9 °F39.9 °F77 %30.00 in10.0 miCalmClear
11:56 AM48.0 °F37.0 °F66 %30.00 in10.0 miCalmClear
12:56 PM48.9 °F37.0 °F64 %30.00 in10.0 miVariable3.5 mphPartly Cloudy
1:56 PM48.9 °F36.0 °F61 %29.98 in10.0 miVariable4.6 mphPartly Cloudy
2:56 PM48.0 °F36.0 °F63 %29.98 in10.0 miVariable3.5 mphScattered Clouds
3:56 PM48.9 °F36.0 °F61 %29.96 in10.0 miVariable4.6 mphClear
4:56 PM46.9 °F34.0 °F61 %29.95 in10.0 miVariable3.5 mphScattered Clouds
5:56 PM46.0 °F35.1 °F66 %29.94 in10.0 miSE (130°)3.5 mphOvercast
6:56 PM44.1 °F37.9 °F79 %29.96 in4.0 miNorth0.00 inRainRain
7:35 PM39.9 °F36.0 °F86 %29.91 in10.0 miEast (80°)3.5 mph0.04 inRainLight Rain
7:56 PM39.0 °F34.0 °F82 %29.98 in10.0 miCalm0.04 inPartly Cloudy
8:56 PM37.9 °F34.0 °F86 %29.99 in9.0 miCalmOvercast
9:56 PM37.0 °F34.0 °F89 %29.99 in7.0 miCalmOvercast
10:56 PM37.9 °F33.1 °F83 %29.98 in10.0 miVariable5.8 mphScattered Clouds
11:56 PM37.0 °F32.0 °F82 %29.99 in10.0 miWNW (290°)6.9 mphScattered Clouds
Hourly data recorded from KMHS, located miles away from Mount Shasta, California







STORIES FROM OUR PARTNERS